• In Deutschland
  • Länderverzeichnis
  • Für 7 Tage
  • Wassertemperatur
  • Satellitenkarten
  • Wetterkarte
  • Widgets
  • user-avatar
    Anmelden

    Stündliche Wetter Sydney

    Heute, 27 März, Montag

    Zeit Temperatur Niederschläge Wind Luftdruck Luftfeuchtigkeit
    00:00 +19°C° 0 mm 3 m/S 762 mmHg 98%
    01:00 +19°C° 0 mm 3 m/S 761 mmHg 98%
    02:00 +19°C° 0 mm 3 m/S 761 mmHg 98%
    03:00 +18°C° 0 mm 2 m/S 761 mmHg 98%
    04:00 +18°C° 0 mm 2 m/S 761 mmHg 99%
    05:00 +19°C° 0 mm 2 m/S 761 mmHg 98%
    06:00 +19°C° 0 mm 3 m/S 761 mmHg 97%
    07:00 +20°C° 0 mm 3 m/S 761 mmHg 96%
    08:00 +22°C° 0 mm 3 m/S 761 mmHg 85%
    09:00 +25°C° 0 mm 3 m/S 761 mmHg 74%
    10:00 +27°C° 0 mm 3 m/S 761 mmHg 64%
    11:00 +28°C° 0 mm 4 m/S 760 mmHg 58%
    12:00 +29°C° 0 mm 4 m/S 759 mmHg 51%
    13:00 +32°C° 0 mm 5 m/S 758 mmHg 45%
    14:00 +32°C° 0 mm 5 m/S 758 mmHg 46%
    15:00 +32°C° 0 mm 6 m/S 758 mmHg 48%
    16:00 +30°C° 0 mm 6 m/S 757 mmHg 49%
    17:00 +28°C° 0 mm 6 m/S 757 mmHg 58%
    18:00 +26°C° 0 mm 6 m/S 757 mmHg 68%
    19:00 +23°C° 0 mm 6 m/S 757 mmHg 77%
    20:00 +23°C° 0 mm 6 m/S 757 mmHg 80%
    21:00 +22°C° 0 mm 6 m/S 757 mmHg 82%
    22:00 +22°C° 0 mm 5 m/S 757 mmHg 85%
    23:00 +21°C° 0 mm 5 m/S 757 mmHg 85%

    Morgen, 28 März, Dienstag

    Zeit Temperatur Niederschläge Wind Luftdruck Luftfeuchtigkeit
    00:00 +21°C° 0 mm 4 m/S 757 mmHg 86%
    01:00 +21°C° 0 mm 4 m/S 757 mmHg 86%
    02:00 +21°C° 0,2 mm 4 m/S 757 mmHg 87%
    03:00 +21°C° 0,2 mm 4 m/S 757 mmHg 88%
    04:00 +21°C° 0,2 mm 4 m/S 757 mmHg 89%
    05:00 +21°C° 0,1 mm 4 m/S 758 mmHg 90%
    06:00 +22°C° 0,1 mm 4 m/S 758 mmHg 92%
    07:00 +22°C° 0,1 mm 4 m/S 759 mmHg 93%
    08:00 +23°C° 0 mm 4 m/S 759 mmHg 87%
    09:00 +25°C° 0 mm 4 m/S 759 mmHg 81%
    10:00 +27°C° 0 mm 3 m/S 759 mmHg 75%
    11:00 +28°C° 0 mm 3 m/S 759 mmHg 71%
    12:00 +29°C° 0 mm 3 m/S 758 mmHg 68%
    13:00 +29°C° 0 mm 2 m/S 758 mmHg 64%
    14:00 +29°C° 0,3 mm 3 m/S 757 mmHg 68%
    15:00 +28°C° 0,3 mm 3 m/S 757 mmHg 71%
    16:00 +28°C° 0,3 mm 3 m/S 757 mmHg 74%
    17:00 +26°C° 0,2 mm 3 m/S 757 mmHg 81%
    18:00 +25°C° 0,2 mm 2 m/S 757 mmHg 88%
    19:00 +23°C° 0,2 mm 2 m/S 758 mmHg 94%
    20:00 +23°C° 0,1 mm 2 m/S 758 mmHg 94%
    21:00 +23°C° 0,1 mm 1 m/S 759 mmHg 95%
    22:00 +23°C° 0,1 mm 1 m/S 759 mmHg 95%
    23:00 +21°C° 0,1 mm 0 m/S 759 mmHg 95%

    übermorgen, 29 März, Mittwoch

    Zeit Temperatur Niederschläge Wind Luftdruck Luftfeuchtigkeit
    00:00 +21°C° 0,1 mm 0 m/S 759 mmHg 95%
    01:00 +21°C° 0,1 mm 0 m/S 759 mmHg 95%
    02:00 +21°C° 0 mm 0 m/S 758 mmHg 96%
    03:00 +21°C° 0 mm 0 m/S 758 mmHg 97%
    04:00 +22°C° 0 mm 1 m/S 758 mmHg 98%
    05:00 +23°C° 0 mm 1 m/S 758 mmHg 97%
    06:00 +23°C° 0 mm 1 m/S 758 mmHg 96%
    07:00 +24°C° 0 mm 1 m/S 758 mmHg 95%
    08:00 +26°C° 0 mm 1 m/S 758 mmHg 86%
    09:00 +28°C° 0 mm 1 m/S 758 mmHg 77%
    10:00 +30°C° 0 mm 2 m/S 758 mmHg 68%
    11:00 +32°C° 0 mm 2 m/S 758 mmHg 60%
    12:00 +35°C° 0 mm 3 m/S 757 mmHg 53%
    13:00 +37°C° 0 mm 3 m/S 756 mmHg 45%
    14:00 +36°C° 0,1 mm 4 m/S 756 mmHg 47%
    15:00 +36°C° 0,1 mm 5 m/S 755 mmHg 48%
    16:00 +35°C° 0,1 mm 5 m/S 755 mmHg 49%
    17:00 +33°C° 0,2 mm 5 m/S 755 mmHg 58%
    18:00 +30°C° 0,2 mm 5 m/S 755 mmHg 67%
    19:00 +27°C° 0,2 mm 5 m/S 755 mmHg 75%
    20:00 +27°C° 0,1 mm 5 m/S 756 mmHg 77%
    21:00 +26°C° 0,1 mm 5 m/S 756 mmHg 78%
    22:00 +26°C° 0,1 mm 5 m/S 756 mmHg 80%
    23:00 +25°C° 0,1 mm 4 m/S 756 mmHg 82%

    30 März, Donnerstag

    Zeit Temperatur Niederschläge Wind Luftdruck Luftfeuchtigkeit
    00:00 +25°C° 0,1 mm 4 m/S 755 mmHg 84%
    01:00 +23°C° 0,1 mm 4 m/S 755 mmHg 86%
    02:00 +24°C° 0,1 mm 3 m/S 755 mmHg 86%
    03:00 +24°C° 0,1 mm 3 m/S 755 mmHg 86%
    04:00 +24°C° 0,1 mm 3 m/S 754 mmHg 86%
    05:00 +24°C° 0 mm 3 m/S 755 mmHg 85%
    06:00 +24°C° 0 mm 3 m/S 755 mmHg 85%
    07:00 +24°C° 0 mm 3 m/S 756 mmHg 84%
    08:00 +25°C° 0,4 mm 4 m/S 756 mmHg 81%
    09:00 +26°C° 0,4 mm 5 m/S 756 mmHg 78%
    10:00 +27°C° 0,4 mm 6 m/S 757 mmHg 75%
    11:00 +24°C° 1,4 mm 6 m/S 757 mmHg 81%
    12:00 +22°C° 1,4 mm 7 m/S 757 mmHg 87%
    13:00 +21°C° 1,4 mm 7 m/S 756 mmHg 93%
    14:00 +20°C° 1,3 mm 7 m/S 756 mmHg 94%
    15:00 +20°C° 1,3 mm 7 m/S 756 mmHg 94%
    16:00 +18°C° 1,3 mm 7 m/S 756 mmHg 94%
    17:00 +18°C° 1,3 mm 8 m/S 757 mmHg 94%
    18:00 +17°C° 1,3 mm 9 m/S 757 mmHg 94%
    19:00 +16°C° 1,3 mm 10 m/S 758 mmHg 93%
    20:00 +16°C° 1 mm 10 m/S 759 mmHg 93%
    21:00 +16°C° 1 mm 10 m/S 759 mmHg 94%
    22:00 +14°C° 1 mm 10 m/S 760 mmHg 94%
    23:00 +16°C° 0,8 mm 9 m/S 760 mmHg 94%

    31 März, Freitag

    Zeit Temperatur Niederschläge Wind Luftdruck Luftfeuchtigkeit
    00:00 +16°C° 0,8 mm 9 m/S 760 mmHg 94%
    01:00 +16°C° 0,8 mm 9 m/S 760 mmHg 95%
    02:00 +16°C° 0,5 mm 8 m/S 760 mmHg 94%
    03:00 +16°C° 0,5 mm 8 m/S 760 mmHg 93%
    04:00 +15°C° 0,5 mm 8 m/S 760 mmHg 93%
    05:00 +15°C° 0,1 mm 7 m/S 760 mmHg 91%
    06:00 +15°C° 0,1 mm 7 m/S 760 mmHg 90%
    07:00 +15°C° 0,1 mm 7 m/S 761 mmHg 88%
    08:00 +16°C° 0,2 mm 7 m/S 761 mmHg 83%
    09:00 +17°C° 0,2 mm 7 m/S 761 mmHg 79%
    10:00 +18°C° 0,2 mm 8 m/S 761 mmHg 74%
    11:00 +20°C° 0,2 mm 8 m/S 761 mmHg 71%
    12:00 +20°C° 0,2 mm 7 m/S 760 mmHg 69%
    13:00 +21°C° 0,2 mm 7 m/S 760 mmHg 67%
    14:00 +21°C° 0,2 mm 7 m/S 760 mmHg 68%
    15:00 +21°C° 0,2 mm 7 m/S 760 mmHg 69%
    16:00 +20°C° 0,2 mm 7 m/S 761 mmHg 70%
    17:00 +20°C° 0,1 mm 6 m/S 761 mmHg 74%
    18:00 +19°C° 0,1 mm 6 m/S 761 mmHg 78%
    19:00 +17°C° 0,1 mm 6 m/S 762 mmHg 81%
    20:00 +16°C° 0,1 mm 5 m/S 762 mmHg 83%
    21:00 +16°C° 0,1 mm 5 m/S 762 mmHg 84%
    22:00 +16°C° 0,1 mm 5 m/S 762 mmHg 86%
    23:00 +15°C° 0,1 mm 5 m/S 762 mmHg 86%

    1 April, Samstag

    Zeit Temperatur Niederschläge Wind Luftdruck Luftfeuchtigkeit
    00:00 +15°C° 0,1 mm 5 m/S 762 mmHg 86%
    01:00 +15°C° 0,1 mm 5 m/S 762 mmHg 86%
    02:00 +15°C° 0,2 mm 5 m/S 762 mmHg 86%
    03:00 +15°C° 0,2 mm 5 m/S 762 mmHg 86%
    04:00 +14°C° 0,2 mm 5 m/S 761 mmHg 87%
    05:00 +14°C° 0,1 mm 5 m/S 762 mmHg 86%
    06:00 +14°C° 0,1 mm 5 m/S 762 mmHg 84%
    07:00 +14°C° 0,1 mm 5 m/S 763 mmHg 83%
    08:00 +16°C° 0,1 mm 6 m/S 763 mmHg 76%
    09:00 +19°C° 0,1 mm 6 m/S 763 mmHg 69%
    10:00 +21°C° 0,1 mm 6 m/S 763 mmHg 61%
    11:00 +22°C° 0,2 mm 6 m/S 763 mmHg 59%
    12:00 +22°C° 0,2 mm 6 m/S 763 mmHg 57%
    13:00 +23°C° 0,2 mm 6 m/S 763 mmHg 55%
    14:00 +23°C° 0,1 mm 6 m/S 763 mmHg 57%
    15:00 +22°C° 0,1 mm 7 m/S 763 mmHg 60%
    16:00 +22°C° 0,1 mm 7 m/S 763 mmHg 62%
    17:00 +20°C° 0,2 mm 7 m/S 764 mmHg 67%
    18:00 +19°C° 0,2 mm 6 m/S 764 mmHg 72%
    19:00 +17°C° 0,2 mm 6 m/S 765 mmHg 78%
    20:00 +16°C° 0,1 mm 6 m/S 765 mmHg 79%
    21:00 +16°C° 0,1 mm 6 m/S 766 mmHg 80%
    22:00 +15°C° 0,1 mm 5 m/S 766 mmHg 81%
    23:00 +15°C° 0,2 mm 6 m/S 766 mmHg 83%
    Mehr zeigen